Regional Weather Roundup
Issued by NWS

Home | Current Version | Previous Version | Text Only | Print | Product List | Glossary On
Versions: 1 2 3 4 5 6 7 8 9 10 11 12 13 14 15 16 17 18 19 20 21 22 23 24 25 26 27 28 29 30 31 32 33 34 35 36 37 38 39 40 41 42 43 44 45 46 47 48 49 50
000
ASHW40 PHFO 240930
RWRHI

WEATHER ROUNDUP FOR HAWAII
NATIONAL WEATHER SERVICE HONOLULU HI
1100 PM HST THU OCT 23 2014

THIS IS AN AUTOMATED REPORT THAT HAS NOT BEEN QUALITY CONTROLLED.

NOTE..."FAIR" INDICATES FEW OR NO CLOUDS BELOW 12,000 FEET WITH NO
SIGNIFICANT WEATHER AND/OR OBSTRUCTIONS TO VISIBILITY.

* - THESE SITES REPORT LIMITED FIELDS

HIZ001>004-241000-
KAUAI-NIIHAU-

CITY           SKY/WX    TMP DP  RH WIND       PRES   REMARKS
LIHUE APT      PTCLDY    79  70  73 E18       30.08S
PORT ALLEN*      N/A     77 N/A N/A E12         N/A
POIPU*           N/A     79 N/A N/A NE10G21     N/A
PRINCEVILLE*     N/A     73 N/A N/A MISG        N/A
KOKOLE POINT*    N/A     73 N/A N/A MISG        N/A
MOLOAA DAIRY*  NOT AVBL
WAIMEA HTS*    NOT AVBL
PUU OPAE*      NOT AVBL
PUU LUA*       NOT AVBL
MAKAHA RIDGE*  NOT AVBL
$$

HIZ005>011-241000-
OAHU-

CITY           SKY/WX    TMP DP  RH WIND       PRES   REMARKS
HONOLULU       PTCLDY    79  69  71 NE7       30.05S
KALAELOA       PTCLDY    75  67  76 CALM      30.06S
KANEOHE MCB    MOCLDY    79  70  73 NE13G18   30.06F
WHEELER FIELD  FAIR      73  68  83 NE8       30.07F
BELLOWS*         N/A    N/A N/A N/A NE20        N/A
KAHUKU*          N/A    N/A N/A N/A NE8G16      N/A
WHEELER*       NOT AVBL
WAIANAE HARBOR NOT AVBL
DILLINGHAM*      N/A     72  66  83 SE1         N/A
KAHUKU TRN*      N/A     75  66  73 E9G20       N/A
KAWAILOA*        N/A     72  68  88 E10G18      N/A
KII*             N/A     81  70  69 E17G23      N/A
MAKUA RANGE*     N/A     75  68  78 NE2G9       N/A
OAHU FOREST NW NOT AVBL
SCHOFIELD BRK*   N/A     72  66  83 N1          N/A
SCHOFIELD S*   NOT AVBL
WAIANAE VLY*   NOT AVBL
KUAOKALA*      NOT AVBL
HONOULIUULI*   NOT AVBL
MOKUOLOE IS*     N/A    N/A N/A N/A MISG        N/A
PALEHUA*       NOT AVBL
WAIAWA PHB*    NOT AVBL
$$

HIZ012>013-241000-
MOLOKAI-

CITY           SKY/WX    TMP DP  RH WIND       PRES   REMARKS
MOLOKAI AIRPT  PTCLDY    75  74  96 NE10G17   30.07S
KALAUPAPA      NOT AVBL
MAKAPULAPAI*   NOT AVBL
MOLOKAI 1*     NOT AVBL
PUU ALII*        N/A     61  61  99 E3G13       N/A
$$

HIZ016-241000-
KAHOOLAWE-

CITY           SKY/WX    TMP DP  RH WIND       PRES   REMARKS
KAHOOLAWE*     NOT AVBL
HAKIOAWA*      NOT AVBL
HONOKANAIA*      N/A     78  70  76 N14G25    30.05F
KANELOA*         N/A     75  68  78 VRB10G21  29.27F
KEALIALALO*    NOT AVBL
LUA MAKIKA*    NOT AVBL
$$

HIZ014>015-241000-
LANAI-

CITY           SKY/WX    TMP DP  RH WIND       PRES   REMARKS
LANAI CITY       N/A    N/A N/A N/A MISG        N/A
LANAI 1*       NOT AVBL
$$

HIZ017>028-241000-
MAUI-

CITY           SKY/WX    TMP DP  RH WIND       PRES   REMARKS
KAHULUI        LGT RAIN  75  71  87 E8G18     30.06S FOG
KAPALUA-W MAUI NOT AVBL
HANA AIRPORT   MOCLDY    77  72  83 NE6       30.08F
HANA*            N/A     77 N/A N/A NE8         N/A
HALEAKALA SUMM   N/A     45  45 100 NE21        N/A
MAALAEA BAY*   NOT AVBL
HALEAKALA*     NOT AVBL
KAUPO GAP*     NOT AVBL
KULA 1*          N/A     53  37  53 SE3         N/A
$$

HIZ023>026-241000-
BIG ISLAND OF HAWAII COAST AND LOWER SLOPES-

CITY           SKY/WX    TMP DP  RH WIND       PRES   REMARKS
KAILUA KONA    CLEAR     78  65  63 E9        30.00F
HILO           CLOUDY    73  70  90 SW6       30.06F
HONOKAA*       NOT AVBL
KAWAIHAE MWT*    N/A     81 N/A N/A W6          N/A
KAWAIHAE*        N/A     81 N/A N/A W3          N/A
SOUTH POINT*     N/A     72 N/A N/A NE10G17     N/A
UPOLU AIRPORT*   N/A    N/A N/A N/A NE10G16     N/A
KAMUELA*       PTSUNNY   64  63  94 NE12      30.14F
HAKALAU*         N/A     48  46  93 W2          N/A
KALOKO-HONOKO*   N/A     77  66  69 NE8         N/A
PALI 2*          N/A     66 -11   4 NE15G24     N/A
KEALAKOMO*       N/A     79  68  69 VRB18G26    N/A
KAUPULEHU*     NOT AVBL
KAPAPALA*        N/A     64  62  94 NW6         N/A
LOWER KAHUKU*  NOT AVBL
PUHE CS*       NOT AVBL
PUHO CS*         N/A     77  63  61 NE3         N/A
PTA KEAMUKU*     N/A     59  50  72 SE8         N/A
WAIKOLOA*      NOT AVBL
$$

HIZ027>028-241000-
BIG ISLAND OF HAWAII INTERIOR AND SUMMMITS-

CITY           SKY/WX    TMP DP  RH WIND       PRES   REMARKS
BRADSHAW FIELD CLOUDY    51  47  87 SE5       30.37F
MK VISITOR CEN NOT AVBL
MAUNA KEA*       N/A     37 -15  10 E18         N/A  WCI  27
MAUNA LOA*       N/A     43  -2  15 MISG        N/A
MAUNA LOA 1*     N/A    N/A N/A N/A MISG        N/A
PTA KIPUKA*      N/A     72  66  83 SW3G9       N/A
PTA RANGE 17*    N/A     57  52  82 E9G21       N/A
PTA WEST*        N/A     59  52  77 S8          N/A
NENE CABIN*      N/A     48  48 100 NE5G12      N/A
AHUMOA*        NOT AVBL
PTA PORTABLE*  NOT AVBL
PUU MALI*      NOT AVBL
$$

HIC003-241000-
NORTHWEST ISLANDS-

CITY           SKY/WX    TMP DP  RH WIND       PRES   REMARKS
MIDWAY ISLAND  CLEAR     79  75  89 W6        29.96R
MIDWAY NOS*    NOT AVBL
FRENCH FRIGATE NOT AVBL
$$

PHZ110>124-180-241000-
BUOY REPORTS

STATION/POSITION TIME  TEMP    WIND        PRES    WAVE   SWELL
                       AIR SEA DIR/SP/G            HT/PER HT/DIR
                 (UTC) (F)     (DEG/KT/KT) (MB)    (FT/S) (FT/D)
BUOY 51001       NOT AVBL
BUOY 51101       NOT AVBL
BUOY 51100       0900   76 80  100/  8/ 10 1018.7F
BUOY 51003       0900   80 82   70/ 10/ 12 1016.8F   5/12   5
BUOY 51004       0850   80 81   70/ 16/ 21 1016.1F   6/ 8   5/120
BARBERS PT BUOY  NOT AVBL
WAIMEA BAY BUOY  0900      82                N/A     4/14   2/310
KAILUA BAY BUOY  0900      82                N/A     5/13   2/350
LANAI BUOY       0900      81                N/A     3/13   2/200
BARBERS PT 2     0900      82                N/A     3/13   2/230
PAUWELA MAUI     0900      81                N/A     5/ 7   2/320
HILO             0900      81                N/A     5/ 7   2/ 20
KANEOHE BAY BUOY NOT AVBL
HANALEI KAUAI    NOT AVBL
KAHULUI HARBOR   0900   76 81   70/  4/  7 1017.6F
HONOLULU HARBOR  0900   80     110/  3/  5 1017.8F
KILO NALU        NOT AVBL
HILO HARBOR      0900   73     180/  4/  6 1017.7S
MOKUOLOE         0900      82              1018.2F
NAWILIWILI       0900      83                N/A
WHOTS BUOY       NOT AVBL
BUOY 51028       NOT AVBL
$$

......................KEY........................................
  SKY/WX - SKY CONDITIONS/PRESENT WEATHER
  TMP    - TEMPERATURE IN FAHRENHEIT
  DWPT   - DEWPOINT IN FAHRENHEIT
  RH     - RELATIVE HUMIDITY IN PERCENT
  WIND   - DIRECTION AND SPEED /MPH FOR ISLANDS...KTS FOR BUOYS/
  PRES   - MEAN SEA LEVEL PRESSURE IN INCHES OF HG
  VSB    - VISIBILITY IN MILES
  HX     - HEAT INDEX
  WCI    - WIND CHILL INDEX
  VRB    - VARIABLE WIND DIRECTION
  N/A    - NOT AVAILABLE



USA.gov is the U.S. government's official web portal to all federal, state and local government web resources and services.